"Time","Value","Approval","myLocation"
"2023-03-30 00:00",28.3843878367003,"Approved","OW377"
"2023-03-30 01:00",28.4503703703704,"Approved","OW377"
"2023-03-30 02:00",28.1783529040404,"Approved","OW377"
"2023-03-30 03:00",28.4473354377104,"Approved","OW377"
"2023-03-30 04:00",28.4013179713805,"Approved","OW377"
"2023-03-30 05:00",28.1673005050505,"Approved","OW377"
"2023-03-30 06:00",28.1132830387205,"Approved","OW377"
"2023-03-30 07:00",28.0582655723906,"Approved","OW377"
"2023-03-30 08:00",28.0072481060606,"Approved","OW377"
"2023-03-30 09:00",27.9602306397306,"Approved","OW377"
"2023-03-30 10:00",27.9162131734007,"Approved","OW377"
"2023-03-30 11:00",27.8751957070707,"Approved","OW377"
"2023-03-30 12:00",27.8371782407407,"Approved","OW377"
"2023-03-30 13:00",27.8011607744108,"Approved","OW377"
"2023-03-30 14:00",27.7661433080808,"Approved","OW377"
"2023-03-30 15:00",27.7351258417508,"Approved","OW377"
"2023-03-30 16:00",28.2661083754209,"Approved","OW377"
"2023-03-30 17:00",28.2230909090909,"Approved","OW377"
"2023-03-30 18:00",27.9800734427609,"Approved","OW377"
"2023-03-30 19:00",28.560055976431,"Approved","OW377"
"2023-03-30 20:00",28.107038510101,"Approved","OW377"
"2023-03-30 21:00",28.349021043771,"Approved","OW377"
"2023-03-30 22:00",28.2920035774411,"Approved","OW377"
"2023-03-30 23:00",28.0679861111111,"Approved","OW377"
"2023-03-31 00:00",28.4159686447811,"Approved","OW377"
"2023-03-31 01:00",28.2669511784512,"Approved","OW377"
"2023-03-31 02:00",28.0689337121212,"Approved","OW377"
"2023-03-31 03:00",28.4759162457912,"Approved","OW377"
"2023-03-31 04:00",28.2568987794613,"Approved","OW377"
"2023-03-31 05:00",28.0508813131313,"Approved","OW377"
"2023-03-31 06:00",28.0078638468013,"Approved","OW377"
"2023-03-31 07:00",27.9588463804714,"Approved","OW377"
"2023-03-31 08:00",27.9138289141414,"Approved","OW377"
"2023-03-31 09:00",27.8718114478114,"Approved","OW377"
"2023-03-31 10:00",27.8317939814815,"Approved","OW377"
"2023-03-31 11:00",27.7937765151515,"Approved","OW377"
"2023-03-31 12:00",27.7567590488215,"Approved","OW377"
"2023-03-31 13:00",27.7217415824916,"Approved","OW377"
"2023-03-31 14:00",27.6887241161616,"Approved","OW377"
"2023-03-31 15:00",27.6587066498317,"Approved","OW377"
"2023-03-31 16:00",28.0716891835017,"Approved","OW377"
"2023-03-31 17:00",28.0336717171717,"Approved","OW377"
"2023-03-31 18:00",27.9086542508417,"Approved","OW377"
"2023-03-31 19:00",28.5016367845118,"Approved","OW377"
"2023-03-31 20:00",28.1126193181818,"Approved","OW377"
"2023-03-31 21:00",28.0116018518519,"Approved","OW377"
"2023-03-31 22:00",28.5785843855219,"Approved","OW377"
"2023-03-31 23:00",28.1145669191919,"Approved","OW377"
"2023-04-01 00:00",27.993549452862,"Approved","OW377"
"2023-04-01 01:00",28.392531986532,"Approved","OW377"
"2023-04-01 02:00",28.147514520202,"Approved","OW377"
"2023-04-01 03:00",27.9794970538721,"Approved","OW377"
"2023-04-01 04:00",28.1334795875421,"Approved","OW377"
"2023-04-01 05:00",28.2294621212121,"Approved","OW377"
"2023-04-01 06:00",27.9634446548822,"Approved","OW377"
"2023-04-01 07:00",27.8764271885522,"Approved","OW377"
"2023-04-01 08:00",27.8444097222222,"Approved","OW377"
"2023-04-01 09:00",27.8063922558923,"Approved","OW377"
"2023-04-01 10:00",27.7693747895623,"Approved","OW377"
"2023-04-01 11:00",27.7333573232323,"Approved","OW377"
"2023-04-01 12:00",27.6983398569024,"Approved","OW377"
"2023-04-01 13:00",27.6663223905724,"Approved","OW377"
"2023-04-01 14:00",27.6353049242424,"Approved","OW377"
"2023-04-01 15:00",27.6082874579125,"Approved","OW377"
"2023-04-01 16:00",27.5812699915825,"Approved","OW377"
"2023-04-01 17:00",28.1362525252525,"Approved","OW377"
"2023-04-01 18:00",27.8422350589226,"Approved","OW377"
"2023-04-01 19:00",27.9022175925926,"Approved","OW377"
"2023-04-01 20:00",28.1362001262626,"Approved","OW377"
"2023-04-01 21:00",27.8341826599327,"Approved","OW377"
"2023-04-01 22:00",27.9461651936027,"Approved","OW377"
"2023-04-01 23:00",28.1571477272727,"Approved","OW377"
"2023-04-02 00:00",27.8571302609428,"Approved","OW377"
"2023-04-02 01:00",27.8071127946128,"Approved","OW377"
"2023-04-02 02:00",28.2380953282828,"Approved","OW377"
"2023-04-02 03:00",27.8990778619529,"Approved","OW377"
"2023-04-02 04:00",27.8230603956229,"Approved","OW377"
"2023-04-02 05:00",28.2090429292929,"Approved","OW377"
"2023-04-02 06:00",27.969025462963,"Approved","OW377"
"2023-04-02 07:00",27.775007996633,"Approved","OW377"
"2023-04-02 08:00",27.702990530303,"Approved","OW377"
"2023-04-02 09:00",27.6869730639731,"Approved","OW377"
"2023-04-02 10:00",27.6589555976431,"Approved","OW377"
"2023-04-02 11:00",27.7829381313131,"Approved","OW377"
"2023-04-02 12:00",27.5769206649832,"Approved","OW377"
"2023-04-02 13:00",27.4639031986532,"Approved","OW377"
"2023-04-02 14:00",27.6588857323232,"Approved","OW377"
"2023-04-02 15:00",27.4638682659933,"Approved","OW377"
"2023-04-02 16:00",27.4138507996633,"Approved","OW377"
"2023-04-02 17:00",27.9088333333333,"Approved","OW377"
"2023-04-02 18:00",27.7368158670034,"Approved","OW377"
"2023-04-02 19:00",27.6137984006734,"Approved","OW377"
"2023-04-02 20:00",28.1807809343434,"Approved","OW377"
"2023-04-02 21:00",27.7567634680135,"Approved","OW377"
"2023-04-02 22:00",27.6737460016835,"Approved","OW377"
"2023-04-02 23:00",28.1427285353535,"Approved","OW377"
"2023-04-03 00:00",27.7677110690236,"Approved","OW377"
"2023-04-03 01:00",27.6786936026936,"Approved","OW377"
"2023-04-03 02:00",28.1316761363636,"Approved","OW377"
"2023-04-03 03:00",27.8656586700337,"Approved","OW377"
"2023-04-03 04:00",27.7106412037037,"Approved","OW377"
"2023-04-03 05:00",27.6776237373737,"Approved","OW377"
"2023-04-03 06:00",27.6406062710438,"Approved","OW377"
"2023-04-03 07:00",27.6045888047138,"Approved","OW377"
"2023-04-03 08:00",27.5725713383838,"Approved","OW377"
"2023-04-03 09:00",27.5405538720539,"Approved","OW377"
"2023-04-03 10:00",27.5095364057239,"Approved","OW377"
"2023-04-03 11:00",27.4795189393939,"Approved","OW377"
"2023-04-03 12:00",27.450501473064,"Approved","OW377"
"2023-04-03 13:00",27.423484006734,"Approved","OW377"
"2023-04-03 14:00",27.398466540404,"Approved","OW377"
"2023-04-03 15:00",27.3754490740741,"Approved","OW377"
"2023-04-03 16:00",27.8234316077441,"Approved","OW377"
"2023-04-03 17:00",27.7354141414141,"Approved","OW377"
"2023-04-03 18:00",27.5933966750842,"Approved","OW377"
"2023-04-03 19:00",28.2243792087542,"Approved","OW377"
"2023-04-03 20:00",27.8403617424242,"Approved","OW377"
"2023-04-03 21:00",27.7003442760943,"Approved","OW377"
"2023-04-03 22:00",28.1463268097643,"Approved","OW377"
"2023-04-03 23:00",27.8603093434343,"Approved","OW377"
"2023-04-04 00:00",27.7132918771044,"Approved","OW377"
"2023-04-04 01:00",28.1002744107744,"Approved","OW377"
"2023-04-04 02:00",27.9102569444444,"Approved","OW377"
"2023-04-04 03:00",27.7432394781145,"Approved","OW377"
"2023-04-04 04:00",28.1122220117845,"Approved","OW377"
"2023-04-04 05:00",27.9182045454545,"Approved","OW377"
"2023-04-04 06:00",27.7091870791246,"Approved","OW377"
"2023-04-04 07:00",27.6731696127946,"Approved","OW377"
"2023-04-04 08:00",27.6401521464646,"Approved","OW377"
"2023-04-04 09:00",27.6041346801347,"Approved","OW377"
"2023-04-04 10:00",27.5691172138047,"Approved","OW377"
"2023-04-04 11:00",27.5350997474747,"Approved","OW377"
"2023-04-04 12:00",27.5020822811448,"Approved","OW377"
"2023-04-04 13:00",27.4710648148148,"Approved","OW377"
"2023-04-04 14:00",27.4420473484848,"Approved","OW377"
"2023-04-04 15:00",27.8470298821549,"Approved","OW377"
"2023-04-04 16:00",27.5550124158249,"Approved","OW377"
"2023-04-04 17:00",27.8939949494949,"Approved","OW377"
"2023-04-04 18:00",27.922977483165,"Approved","OW377"
"2023-04-04 19:00",27.693960016835,"Approved","OW377"
"2023-04-04 20:00",28.2299425505051,"Approved","OW377"
"2023-04-04 21:00",27.9109250841751,"Approved","OW377"
"2023-04-04 22:00",27.7599076178451,"Approved","OW377"
"2023-04-04 23:00",28.2868901515152,"Approved","OW377"
"2023-04-05 00:00",27.8588726851852,"Approved","OW377"
"2023-04-05 01:00",27.7528552188552,"Approved","OW377"
"2023-04-05 02:00",28.3108377525253,"Approved","OW377"
"2023-04-05 03:00",27.8688202861953,"Approved","OW377"
"2023-04-05 04:00",27.7618028198653,"Approved","OW377"
"2023-04-05 05:00",28.1117853535354,"Approved","OW377"
"2023-04-05 06:00",27.9147678872054,"Approved","OW377"
"2023-04-05 07:00",27.7057504208754,"Approved","OW377"
"2023-04-05 08:00",27.5727329545455,"Approved","OW377"
"2023-04-05 09:00",27.5717154882155,"Approved","OW377"
"2023-04-05 10:00",27.5456980218855,"Approved","OW377"
"2023-04-05 11:00",27.5136805555556,"Approved","OW377"
"2023-04-05 12:00",27.4806630892256,"Approved","OW377"
"2023-04-05 13:00",27.4486456228956,"Approved","OW377"
"2023-04-05 14:00",27.4186281565657,"Approved","OW377"
"2023-04-05 15:00",27.3896106902357,"Approved","OW377"
"2023-04-05 16:00",27.8415932239057,"Approved","OW377"
"2023-04-05 17:00",27.6455757575758,"Approved","OW377"
"2023-04-05 18:00",27.5945582912458,"Approved","OW377"
"2023-04-05 19:00",28.1035408249158,"Approved","OW377"
"2023-04-05 20:00",27.6895233585859,"Approved","OW377"
"2023-04-05 21:00",27.8155058922559,"Approved","OW377"
"2023-04-05 22:00",28.0024884259259,"Approved","OW377"
"2023-04-05 23:00",27.699470959596,"Approved","OW377"
"2023-04-06 00:00",27.733453493266,"Approved","OW377"
"2023-04-06 01:00",28.040436026936,"Approved","OW377"
"2023-04-06 02:00",27.7114185606061,"Approved","OW377"
"2023-04-06 03:00",27.6484010942761,"Approved","OW377"
"2023-04-06 04:00",28.2473836279461,"Approved","OW377"
"2023-04-06 05:00",27.8323661616162,"Approved","OW377"
"2023-04-06 06:00",27.6673486952862,"Approved","OW377"
"2023-04-06 07:00",27.6303312289562,"Approved","OW377"
"2023-04-06 08:00",27.5863137626263,"Approved","OW377"
"2023-04-06 09:00",27.5442962962963,"Approved","OW377"
"2023-04-06 10:00",27.5042788299663,"Approved","OW377"
"2023-04-06 11:00",27.4652613636364,"Approved","OW377"
"2023-04-06 12:00",27.4282438973064,"Approved","OW377"
"2023-04-06 13:00",27.3932264309764,"Approved","OW377"
"2023-04-06 14:00",27.3592089646465,"Approved","OW377"
"2023-04-06 15:00",27.3291914983165,"Approved","OW377"
"2023-04-06 16:00",27.7241740319865,"Approved","OW377"
"2023-04-06 17:00",27.8911565656566,"Approved","OW377"
"2023-04-06 18:00",27.5581390993266,"Approved","OW377"
"2023-04-06 19:00",27.7381216329966,"Approved","OW377"
"2023-04-06 20:00",28.1071041666667,"Approved","OW377"
"2023-04-06 21:00",27.6980867003367,"Approved","OW377"
"2023-04-06 22:00",28.0440692340067,"Approved","OW377"
"2023-04-06 23:00",27.8230517676768,"Approved","OW377"
"2023-04-07 00:00",27.6200343013468,"Approved","OW377"
"2023-04-07 01:00",27.6460168350168,"Approved","OW377"
"2023-04-07 02:00",27.9989993686869,"Approved","OW377"
"2023-04-07 03:00",27.6629819023569,"Approved","OW377"
"2023-04-07 04:00",27.5939644360269,"Approved","OW377"
"2023-04-07 05:00",28.041946969697,"Approved","OW377"
"2023-04-07 06:00",27.708929503367,"Approved","OW377"
"2023-04-07 07:00",27.519912037037,"Approved","OW377"
"2023-04-07 08:00",27.4548945707071,"Approved","OW377"
"2023-04-07 09:00",27.4358771043771,"Approved","OW377"
"2023-04-07 10:00",27.4048596380471,"Approved","OW377"
"2023-04-07 11:00",27.3718421717172,"Approved","OW377"
"2023-04-07 12:00",27.3398247053872,"Approved","OW377"
"2023-04-07 13:00",27.3088072390572,"Approved","OW377"
"2023-04-07 14:00",27.2807897727273,"Approved","OW377"
"2023-04-07 15:00",27.2547723063973,"Approved","OW377"
"2023-04-07 16:00",27.2317548400673,"Approved","OW377"
"2023-04-07 17:00",27.7597373737374,"Approved","OW377"
"2023-04-07 18:00",27.4917199074074,"Approved","OW377"
"2023-04-07 19:00",27.3777024410774,"Approved","OW377"
"2023-04-07 20:00",27.9626849747475,"Approved","OW377"
"2023-04-07 21:00",27.5376675084175,"Approved","OW377"
"2023-04-07 22:00",27.4456500420875,"Approved","OW377"
"2023-04-07 23:00",27.9426325757576,"Approved","OW377"
"2023-04-08 00:00",27.6026151094276,"Approved","OW377"
"2023-04-08 01:00",27.4585976430976,"Approved","OW377"
"2023-04-08 02:00",27.8405801767677,"Approved","OW377"
"2023-04-08 03:00",27.6435627104377,"Approved","OW377"
"2023-04-08 04:00",27.4535452441077,"Approved","OW377"
"2023-04-08 05:00",27.4235277777778,"Approved","OW377"
"2023-04-08 06:00",27.3845103114478,"Approved","OW377"
"2023-04-08 07:00",27.3474928451178,"Approved","OW377"
"2023-04-08 08:00",27.3114753787879,"Approved","OW377"
"2023-04-08 09:00",27.2784579124579,"Approved","OW377"
"2023-04-08 10:00",27.2464404461279,"Approved","OW377"
"2023-04-08 11:00",27.215422979798,"Approved","OW377"
"2023-04-08 12:00",27.184405513468,"Approved","OW377"
"2023-04-08 13:00",27.153388047138,"Approved","OW377"
"2023-04-08 14:00",27.1253705808081,"Approved","OW377"
"2023-04-08 15:00",27.1003531144781,"Approved","OW377"
"2023-04-08 16:00",27.0773356481481,"Approved","OW377"
"2023-04-08 17:00",27.6743181818182,"Approved","OW377"
"2023-04-08 18:00",27.2953007154882,"Approved","OW377"
"2023-04-08 19:00",27.5662832491582,"Approved","OW377"
"2023-04-08 20:00",27.5672657828283,"Approved","OW377"
"2023-04-08 21:00",27.3482483164983,"Approved","OW377"
"2023-04-08 22:00",27.7192308501684,"Approved","OW377"
"2023-04-08 23:00",27.6002133838384,"Approved","OW377"
"2023-04-09 00:00",27.3911959175084,"Approved","OW377"
"2023-04-09 01:00",27.6231784511785,"Approved","OW377"
"2023-04-09 02:00",27.6831609848485,"Approved","OW377"
"2023-04-09 03:00",27.4281435185185,"Approved","OW377"
"2023-04-09 04:00",27.3891260521886,"Approved","OW377"
"2023-04-09 05:00",27.8371085858586,"Approved","OW377"
"2023-04-09 06:00",27.5230911195286,"Approved","OW377"
"2023-04-09 07:00",27.3390736531987,"Approved","OW377"
"2023-04-09 08:00",27.3090561868687,"Approved","OW377"
"2023-04-09 09:00",27.2830387205387,"Approved","OW377"
"2023-04-09 10:00",27.2530212542088,"Approved","OW377"
"2023-04-09 11:00",27.2210037878788,"Approved","OW377"
"2023-04-09 12:00",27.1869863215488,"Approved","OW377"
"2023-04-09 13:00",27.1539688552189,"Approved","OW377"
"2023-04-09 14:00",27.1239513888889,"Approved","OW377"
"2023-04-09 15:00",27.0929339225589,"Approved","OW377"
"2023-04-09 16:00",27.335916456229,"Approved","OW377"
"2023-04-09 17:00",27.713898989899,"Approved","OW377"
"2023-04-09 18:00",27.316881523569,"Approved","OW377"
"2023-04-09 19:00",27.6918640572391,"Approved","OW377"
"2023-04-09 20:00",27.5348465909091,"Approved","OW377"
"2023-04-09 21:00",27.3418291245791,"Approved","OW377"
"2023-04-09 22:00",27.7758116582492,"Approved","OW377"
"2023-04-09 23:00",27.5267941919192,"Approved","OW377"
"2023-04-10 00:00",27.3687767255892,"Approved","OW377"
"2023-04-10 01:00",27.3557592592593,"Approved","OW377"
"2023-04-10 02:00",27.6917417929293,"Approved","OW377"
"2023-04-10 03:00",27.3957243265993,"Approved","OW377"
"2023-04-10 04:00",27.3347068602694,"Approved","OW377"
"2023-04-10 05:00",27.5426893939394,"Approved","OW377"
"2023-04-10 06:00",27.5486719276094,"Approved","OW377"
"2023-04-10 07:00",27.3266544612795,"Approved","OW377"
"2023-04-10 08:00",27.1956369949495,"Approved","OW377"
"2023-04-10 09:00",27.1676195286195,"Approved","OW377"
"2023-04-10 10:00",27.1636020622896,"Approved","OW377"
"2023-04-10 11:00",27.7355845959596,"Approved","OW377"
"2023-04-10 12:00",28.0115671296296,"Approved","OW377"
"2023-04-10 13:00",27.6635496632997,"Approved","OW377"
"2023-04-10 14:00",27.5445321969697,"Approved","OW377"
"2023-04-10 15:00",27.4685147306397,"Approved","OW377"
"2023-04-10 16:00",27.3054972643098,"Approved","OW377"
"2023-04-10 17:00",27.1874797979798,"Approved","OW377"
"2023-04-10 18:00",27.1854623316498,"Approved","OW377"
"2023-04-10 19:00",27.7434448653199,"Approved","OW377"
"2023-04-10 20:00",27.4884273989899,"Approved","OW377"
"2023-04-10 21:00",27.3554099326599,"Approved","OW377"
"2023-04-10 22:00",27.76839246633,"Approved","OW377"
"2023-04-10 23:00",27.573375,"Approved","OW377"
"2023-04-11 00:00",27.39535753367,"Approved","OW377"
"2023-04-11 01:00",27.7393400673401,"Approved","OW377"
"2023-04-11 02:00",27.6863226010101,"Approved","OW377"
"2023-04-11 03:00",27.4633051346801,"Approved","OW377"
"2023-04-11 04:00",27.7372876683502,"Approved","OW377"
"2023-04-11 05:00",27.7062702020202,"Approved","OW377"
"2023-04-11 06:00",27.4552527356902,"Approved","OW377"
"2023-04-11 07:00",27.3672352693603,"Approved","OW377"
"2023-04-11 08:00",27.3392178030303,"Approved","OW377"
"2023-04-11 09:00",27.3032003367003,"Approved","OW377"
"2023-04-11 10:00",27.2671828703704,"Approved","OW377"
"2023-04-11 11:00",27.2331654040404,"Approved","OW377"
"2023-04-11 12:00",27.2011479377104,"Approved","OW377"
"2023-04-11 13:00",27.1701304713805,"Approved","OW377"
"2023-04-11 14:00",27.1421130050505,"Approved","OW377"
"2023-04-11 15:00",27.1160955387205,"Approved","OW377"
"2023-04-11 16:00",27.7300780723906,"Approved","OW377"
"2023-04-11 17:00",27.4380606060606,"Approved","OW377"
"2023-04-11 18:00",27.6470431397306,"Approved","OW377"
"2023-04-11 19:00",27.7010256734007,"Approved","OW377"
"2023-04-11 20:00",27.4570082070707,"Approved","OW377"
"2023-04-11 21:00",27.9629907407407,"Approved","OW377"
"2023-04-11 22:00",27.7249732744108,"Approved","OW377"
"2023-04-11 23:00",27.5389558080808,"Approved","OW377"
"2023-04-12 00:00",27.9629383417508,"Approved","OW377"
"2023-04-12 01:00",27.7319208754209,"Approved","OW377"
"2023-04-12 02:00",27.5659034090909,"Approved","OW377"
"2023-04-12 03:00",28.0848859427609,"Approved","OW377"
"2023-04-12 04:00",27.733868476431,"Approved","OW377"
"2023-04-12 05:00",27.596851010101,"Approved","OW377"
"2023-04-12 06:00",27.854833543771,"Approved","OW377"
"2023-04-12 07:00",27.7488160774411,"Approved","OW377"
"2023-04-12 08:00",27.5287986111111,"Approved","OW377"
"2023-04-12 09:00",27.3907811447811,"Approved","OW377"
"2023-04-12 10:00",27.3497636784512,"Approved","OW377"
"2023-04-12 11:00",27.3387462121212,"Approved","OW377"
"2023-04-12 12:00",27.3147287457912,"Approved","OW377"
"2023-04-12 13:00",27.2877112794613,"Approved","OW377"
"2023-04-12 14:00",27.2596938131313,"Approved","OW377"
"2023-04-12 15:00",27.3446763468013,"Approved","OW377"
"2023-04-12 16:00",27.8866588804714,"Approved","OW377"
"2023-04-12 17:00",27.4606414141414,"Approved","OW377"
"2023-04-12 18:00",27.8006239478114,"Approved","OW377"
"2023-04-12 19:00",28.2256064814815,"Approved","OW377"
"2023-04-12 20:00",27.7525890151515,"Approved","OW377"
"2023-04-12 21:00",28.0405715488215,"Approved","OW377"
"2023-04-12 22:00",28.1805540824916,"Approved","OW377"
"2023-04-12 23:00",27.8015366161616,"Approved","OW377"
"2023-04-13 00:00",28.1065191498316,"Approved","OW377"
"2023-04-13 01:00",28.0245016835017,"Approved","OW377"
"2023-04-13 02:00",27.7734842171717,"Approved","OW377"
"2023-04-13 03:00",28.0994667508417,"Approved","OW377"
"2023-04-13 04:00",28.0094492845118,"Approved","OW377"
"2023-04-13 05:00",27.7614318181818,"Approved","OW377"
"2023-04-13 06:00",27.7064143518519,"Approved","OW377"
"2023-04-13 07:00",27.6503968855219,"Approved","OW377"
"2023-04-13 08:00",27.5983794191919,"Approved","OW377"
"2023-04-13 09:00",27.550361952862,"Approved","OW377"
"2023-04-13 10:00",27.507344486532,"Approved","OW377"
"2023-04-13 11:00",27.467327020202,"Approved","OW377"
"2023-04-13 12:00",27.4303095538721,"Approved","OW377"
"2023-04-13 13:00",27.3952920875421,"Approved","OW377"
"2023-04-13 14:00",27.3622746212121,"Approved","OW377"
"2023-04-13 15:00",27.3312571548822,"Approved","OW377"
"2023-04-13 16:00",27.9542396885522,"Approved","OW377"
"2023-04-13 17:00",27.7342222222222,"Approved","OW377"
"2023-04-13 18:00",27.8512047558923,"Approved","OW377"
"2023-04-13 19:00",28.0791872895623,"Approved","OW377"
"2023-04-13 20:00",27.7361698232323,"Approved","OW377"
"2023-04-13 21:00",28.2971523569024,"Approved","OW377"
"2023-04-13 22:00",27.8621348905724,"Approved","OW377"
"2023-04-13 23:00",28.0921174242424,"Approved","OW377"
"2023-04-14 00:00",28.1220999579125,"Approved","OW377"
"2023-04-14 01:00",27.8520824915825,"Approved","OW377"
"2023-04-14 02:00",28.2690650252525,"Approved","OW377"
"2023-04-14 03:00",28.0510475589226,"Approved","OW377"
"2023-04-14 04:00",27.8580300925926,"Approved","OW377"
"2023-04-14 05:00",28.1990126262626,"Approved","OW377"
"2023-04-14 06:00",27.9969951599327,"Approved","OW377"
"2023-04-14 07:00",27.7719776936027,"Approved","OW377"
"2023-04-14 08:00",27.6859602272727,"Approved","OW377"
"2023-04-14 09:00",27.6539427609428,"Approved","OW377"
"2023-04-14 10:00",27.6129252946128,"Approved","OW377"
"2023-04-14 11:00",27.5719078282828,"Approved","OW377"
"2023-04-14 12:00",28.1378903619529,"Approved","OW377"
"2023-04-14 13:00",28.4978728956229,"Approved","OW377"
"2023-04-14 14:00",28.7648554292929,"Approved","OW377"
"2023-04-14 15:00",28.991837962963,"Approved","OW377"
"2023-04-14 16:00",28.541820496633,"Approved","OW377"
"2023-04-14 17:00",28.341803030303,"Approved","OW377"
"2023-04-14 18:00",28.2117855639731,"Approved","OW377"
"2023-04-14 19:00",28.1127680976431,"Approved","OW377"
"2023-04-14 20:00",28.0307506313131,"Approved","OW377"
"2023-04-14 21:00",27.9597331649832,"Approved","OW377"
"2023-04-14 22:00",27.8987156986532,"Approved","OW377"
"2023-04-14 23:00",28.2826982323232,"Approved","OW377"
"2023-04-15 00:00",27.9266807659933,"Approved","OW377"
"2023-04-15 01:00",28.0266632996633,"Approved","OW377"
"2023-04-15 02:00",28.2266458333333,"Approved","OW377"
"2023-04-15 03:00",27.9256283670034,"Approved","OW377"
"2023-04-15 04:00",28.1356109006734,"Approved","OW377"
"2023-04-15 05:00",28.1755934343434,"Approved","OW377"
"2023-04-15 06:00",27.9055759680135,"Approved","OW377"
"2023-04-15 07:00",27.8455585016835,"Approved","OW377"
"2023-04-15 08:00",27.7935410353535,"Approved","OW377"
"2023-04-15 09:00",27.7445235690236,"Approved","OW377"
"2023-04-15 10:00",27.6995061026936,"Approved","OW377"
"2023-04-15 11:00",27.6584886363636,"Approved","OW377"
"2023-04-15 12:00",27.6204711700337,"Approved","OW377"
"2023-04-15 13:00",27.5834537037037,"Approved","OW377"
"2023-04-15 14:00",27.5484362373737,"Approved","OW377"
"2023-04-15 15:00",27.5184187710438,"Approved","OW377"
"2023-04-15 16:00",27.4884013047138,"Approved","OW377"
"2023-04-15 17:00",28.1263838383838,"Approved","OW377"
"2023-04-15 18:00",27.7413663720539,"Approved","OW377"
"2023-04-15 19:00",27.8673489057239,"Approved","OW377"
"2023-04-15 20:00",28.1013314393939,"Approved","OW377"
"2023-04-15 21:00",27.778313973064,"Approved","OW377"
"2023-04-15 22:00",28.045296506734,"Approved","OW377"
"2023-04-15 23:00",28.001279040404,"Approved","OW377"
"2023-04-16 00:00",27.7922615740741,"Approved","OW377"
"2023-04-16 01:00",28.1302441077441,"Approved","OW377"
"2023-04-16 02:00",27.9722266414141,"Approved","OW377"
"2023-04-16 03:00",27.7862091750842,"Approved","OW377"
"2023-04-16 04:00",28.0211917087542,"Approved","OW377"
"2023-04-16 05:00",28.0051742424242,"Approved","OW377"
"2023-04-16 06:00",27.7591567760943,"Approved","OW377"
"2023-04-16 07:00",27.6971393097643,"Approved","OW377"
"2023-04-16 08:00",27.6571218434343,"Approved","OW377"
"2023-04-16 09:00",27.6141043771044,"Approved","OW377"
"2023-04-16 10:00",27.5720869107744,"Approved","OW377"
"2023-04-16 11:00",27.5040694444444,"Approved","OW377"
"2023-04-16 12:00",27.3660519781145,"Approved","OW377"
"2023-04-16 13:00",27.2650345117845,"Approved","OW377"
"2023-04-16 14:00",27.1770170454545,"Approved","OW377"
"2023-04-16 15:00",27.1959995791246,"Approved","OW377"
"2023-04-16 16:00",27.4219821127946,"Approved","OW377"
"2023-04-16 17:00",27.6609646464646,"Approved","OW377"
"2023-04-16 18:00",27.4179471801347,"Approved","OW377"
"2023-04-16 19:00",27.9479297138047,"Approved","OW377"